{"data":{"norad_id":66997,"intl_designator":"2025-292E","name":"2025-292E","alt_names":[],"object_type":"PAYLOAD","status":"ACTIVE","operator":null,"country":"PRC","launch_date":"2025-12-10","launch_site_code":"JSC","launch_vehicle":null,"mission":null,"orbit_class":"UNKNOWN","rcs_meters":null,"size_class":null,"mass_kg":null,"dimensions":null,"purposes":[],"wikipedia_slug":null,"has_3d_model":false,"image_url":null,"decayed_at":null,"tle_current":{"epoch":"2026-05-25T02:38:05.229600Z","epoch_age_seconds":58924,"freshness":"FRESH","line1":"1 66997U 25292E   26145.10978275  .00003116  00000+0  21641-3 0  9991","line2":"2 66997  97.6330 221.1144 0016023  83.3062 276.9988 15.06190958 24960","mean_motion":15.06190958,"eccentricity":0.0016023,"inclination_deg":97.633,"raan_deg":221.1144,"arg_perigee_deg":83.3062,"mean_anomaly_deg":276.9988,"bstar":0.00021641,"rev_number":2496,"period_min":95.605407292586,"perigee_km":536.75480297869,"apogee_km":558.94982833965,"semimajor_km":6925.9893156592,"source":"CELESTRAK","updated_at":"2026-05-25T13:38:06.638712Z"}}}